QPF
0.00 0.00 0.00 0.00 0.00 0.00 0.00 0.00 0.00 0.00 0.00 0.00 0.00 0.00 0.00 0.00 0.00 0.00 0.00 0.00 0.00 0.02 0.04 0.03 0.02 0.01 0.01 0.01 0.01 0.01 0.02 0.06 0.05 0.06 0.03 0.02 0.03 0.02 0.02 0.01 0.00 0.00 0.00
0.00 0.00 0.00 0.00 0.00 0.00 0.00 0.00 0.00 0.00 0.00 0.00 0.00 0.00 0.00 0.00 0.00 0.00 0.00 0.01 0.04 0.06 0.02 0.00 0.00 0.00 0.01 0.01 0.02 0.01 0.01 0.03 0.05 0.02 0.00 0.00 0.01 0.00 0.00 0.00 0.00 0.00 0.00
0.00 0.00 0.00 0.00 0.00 0.00 0.00 0.00 0.00 0.00 0.00 0.00 0.00 0.00 0.00 0.00 0.00 0.00 0.01 0.04 0.06 0.01 0.00 0.00 0.00 0.00 0.00 0.00 0.00 0.00 0.00 0.00 0.00 0.00 0.00 0.00 0.00 0.00 0.00 0.00 0.00 0.00 0.00
0.00 0.00 0.00 0.00 0.00 0.00 0.00 0.00 0.00 0.00 0.00 0.00 0.00 0.00 0.00 0.00 0.00 0.00 0.01 0.01 0.00 0.00 0.00 0.00 0.00 0.00 0.00 0.00 0.00 0.00 0.00 0.00 0.00 0.00 0.00 0.00 0.00 0.00 0.00 0.00 0.00 0.00 0.00
0.00 0.00 0.00 0.00 0.00 0.00 0.00 0.00 0.00 0.00 0.00 0.00 0.00 0.00 0.00 0.00 0.00 0.00 0.00 0.00 0.00 0.00 0.00 0.00 0.00 0.00 0.00 0.00 0.00 0.00 0.00 0.00 0.00 0.00 0.00 0.00 0.00 0.00 0.00 0.00 0.00 0.00 0.00
0.00 0.00 0.00 0.00 0.00 0.00 0.00 0.00 0.00 0.00 0.00 0.00 0.00 0.00 0.00 0.01 0.00 0.00 0.00 0.00 0.00 0.00 0.00 0.00 0.00 0.00 0.00 0.00 0.00 0.00 0.00 0.00 0.00 0.00 0.00 0.00 0.00 0.00 0.00 0.00 0.00 0.00 0.01
0.00 0.00 0.00 0.00 0.00 0.00 0.00 0.00 0.00 0.00 0.00 0.00 0.00 0.01 0.01 0.00 0.00 0.00 0.00 0.00 0.01 0.01 0.01 0.00 0.00 0.00 0.00 0.00 0.00 0.00 0.00 0.00 0.00 0.00 0.00 0.00 0.00 0.00 0.00 0.00 0.01 0.01 0.01
0.00 0.00 0.00 0.00 0.00 0.00 0.00 0.00 0.00 0.00 0.00 0.00 0.00 0.00 0.00 0.00 0.00 0.00 0.00 0.00 0.01 0.01 0.01 0.00 0.00 0.00 0.00 0.00 0.00 0.00 0.00 0.00 0.00 0.00 0.00 0.00 0.00 0.01 0.01 0.01 0.00 0.00 0.00
0.00 0.00 0.00 0.00 0.00 0.00 0.00 0.01 0.01 0.01 0.00 0.01 0.00 0.00 0.00 0.00 0.00 0.00 0.00 0.01 0.01 0.01 0.00 0.00 0.00 0.00 0.00 0.00 0.00 0.00 0.00 0.00 0.00 0.00 0.00 0.00 0.00 0.00 0.00 0.00 0.00 0.00 0.00
0.00 0.00 0.00 0.00 0.00 0.00 0.00 0.00 0.01 0.01 0.01 0.00 0.00 0.00 0.00 0.00 0.00 0.00 0.00 0.00 0.01 0.01 0.00 0.00 0.00 0.00 0.00 0.00 0.00 0.00 0.00 0.00 0.00 0.00 0.00 0.00 0.00 0.00 0.00 0.00 0.00 0.00 0.00
0.00 0.00 0.00 0.00 0.00 0.00 0.00 0.01 0.01 0.00 0.00 0.00 0.00 0.00 0.00 0.00 0.00 0.00 0.00 0.00 0.00 0.00 0.00 0.00 0.00 0.00 0.00 0.00 0.00 0.00 0.00 0.00 0.00 0.00 0.00 0.00 0.00 0.00 0.01 0.00 0.00 0.00 0.00
0.01 0.01 0.00 0.00 0.01 0.01 0.01 0.01 0.00 0.00 0.00 0.00 0.00 0.00 0.00 0.00 0.00 0.00 0.00 0.00 0.00 0.00 0.00 0.00 0.00 0.00 0.00 0.00 0.00 0.00 0.00 0.00 0.00 0.00 0.00 0.00 0.00 0.00 0.00 0.00 0.00 0.00 0.00
0.01 0.01 0.01 0.01 0.01 0.02 0.01 0.00 0.00 0.00 0.00 0.00 0.00 0.00 0.00 0.00 0.00 0.00 0.00 0.00 0.00 0.00 0.00 0.00 0.00 0.00 0.00 0.00 0.00 0.00 0.00 0.00 0.00 0.00 0.00 0.00 0.00 0.00 0.00 0.00 0.01 0.01 0.00
0.01 0.01 0.01 0.01 0.01 0.01 0.00 0.00 0.00 0.00 0.00 0.00 0.00 0.00 0.00 0.00 0.00 0.00 0.00 0.00 0.00 0.00 0.00 0.00 0.00 0.00 0.00 0.00 0.00 0.00 0.00 0.00 0.00 0.00 0.00 0.00 0.00 0.00 0.00 0.01 0.01 0.02 0.01
0.00 0.00 0.00 0.00 0.00 0.00 0.00 0.00 0.00 0.00 0.00 0.00 0.00 0.00 0.00 0.00 0.00 0.00 0.00 0.00 0.00 0.00 0.00 0.00 0.00 0.00 0.00 0.00 0.00 0.00 0.00 0.00 0.00 0.00 0.00 0.00 0.00 0.00 0.00 0.00 0.00 0.00 0.00
0.00 0.00 0.00 0.00 0.00 0.00 0.00 0.00 0.00 0.00 0.00 0.00 0.00 0.00 0.00 0.00 0.00 0.00 0.00 0.00 0.00 0.00 0.00 0.00 0.00 0.00 0.00 0.00 0.00 0.00 0.00 0.00 0.00 0.00 0.00 0.00 0.00 0.00 0.00 0.00 0.00 0.00 0.00
0.00 0.00 0.00 0.00 0.00 0.00 0.00 0.00 0.00 0.00 0.00 0.00 0.00 0.00 0.00 0.00 0.00 0.00 0.00 0.00 0.00 0.00 0.00 0.00 0.00 0.00 0.00 0.00 0.00 0.00 0.00 0.00 0.00 0.00 0.00 0.00 0.00 0.00 0.00 0.00 0.00 0.00 0.00
0.00 0.00 0.00 0.00 0.00 0.00 0.00 0.00 0.00 0.00 0.00 0.00 0.00 0.00 0.00 0.00 0.00 0.00 0.00 0.00 0.00 0.00 0.00 0.00 0.00 0.00 0.00 0.00 0.00 0.00 0.00 0.00 0.00 0.00 0.00 0.00 0.00 0.00 0.00 0.00 0.00 0.00 0.00
0.00 0.00 0.00 0.00 0.00 0.00 0.00 0.00 0.00 0.00 0.00 0.00 0.00 0.00 0.00 0.00 0.00 0.00 0.00 0.00 0.00 0.00 0.00 0.00 0.00 0.00 0.00 0.00 0.00 0.00 0.00 0.00 0.00 0.00 0.00 0.00 0.00 0.00 0.00 0.00 0.00 0.00 0.00
0.00 0.00 0.00 0.00 0.00 0.00 0.00 0.00 0.00 0.00 0.00 0.00 0.00 0.00 0.00 0.00 0.00 0.00 0.00 0.00 0.00 0.00 0.00 0.00 0.00 0.00 0.00 0.00 0.00 0.00 0.00 0.00 0.00 0.00 0.00 0.00 0.00 0.00 0.00 0.00 0.00 0.00 0.00
0.00 0.00 0.00 0.00 0.00 0.00 0.00 0.00 0.00 0.00 0.00 0.00 0.00 0.00 0.00 0.00 0.00 0.00 0.00 0.00 0.00 0.00 0.00 0.00 0.00 0.00 0.00 0.00 0.00 0.00 0.00 0.00 0.00 0.00 0.00 0.00 0.00 0.00 0.00 0.00 0.00 0.00 0.00
0.00 0.00 0.00 0.00 0.00 0.00 0.00 0.00 0.00 0.00 0.00 0.00 0.00 0.00 0.00 0.00 0.00 0.00 0.00 0.00 0.00 0.00 0.00 0.00 0.00 0.00 0.00 0.00 0.00 0.00 0.00 0.00 0.00 0.00 0.00 0.00 0.00 0.00 0.00 0.00 0.00 0.00 0.00
0.00 0.00 0.00 0.00 0.00 0.00 0.00 0.00 0.00 0.00 0.00 0.00 0.00 0.00 0.00 0.00 0.00 0.00 0.00 0.00 0.00 0.00 0.00 0.00 0.00 0.00 0.00 0.00 0.00 0.00 0.00 0.00 0.00 0.00 0.00 0.00 0.00 0.00 0.00 0.00 0.00 0.00 0.00
0.00 0.00 0.00 0.00 0.00 0.00 0.00 0.00 0.00 0.00 0.00 0.00 0.00 0.00 0.00 0.00 0.00 0.00 0.00 0.00 0.00 0.00 0.00 0.00 0.00 0.00 0.00 0.00 0.00 0.00 0.00 0.00 0.00 0.00 0.00 0.00 0.00 0.00 0.00 0.00 0.00 0.00 0.00
0.00 0.00 0.00 0.00 0.00 0.00 0.00 0.00 0.00 0.00 0.00 0.00 0.00 0.00 0.00 0.00 0.00 0.00 0.00 0.00 0.00 0.00 0.00 0.00 0.00 0.00 0.00 0.00 0.00 0.00 0.00 0.00 0.00 0.00 0.00 0.00 0.00 0.00 0.00 0.00 0.00 0.00 0.00
0.00 0.00 0.00 0.00 0.00 0.00 0.00 0.00 0.00 0.00 0.00 0.00 0.00 0.00 0.00 0.00 0.00 0.00 0.00 0.00 0.00 0.00 0.00 0.00 0.00 0.00 0.00 0.00 0.00 0.00 0.00 0.00 0.00 0.00 0.00 0.00 0.00 0.00 0.00 0.00 0.00 0.00 0.00
MSLP
1011.64 1011.91 1011.98 1012.22 1012.45 1012.57 1012.35 1012.20 1012.41 1012.58 1012.66 1012.54 1012.23 1011.91 1011.61 1011.21 1010.83 1010.40 1010.07 1009.58 1008.76 1008.06 1007.82 1007.45 1007.29 1007.27 1006.85 1006.64 1006.68 1006.39 1006.09 1006.14 1006.10 1006.52 1007.17 1007.43 1007.50 1007.27 1007.32 1007.24 1007.22 1007.17 1007.33
1012.36 1011.86 1011.78 1012.04 1012.25 1012.42 1012.34 1011.88 1011.82 1011.99 1012.35 1012.23 1011.88 1011.51 1011.11 1010.70 1010.26 1009.91 1009.72 1009.25 1008.72 1008.20 1008.06 1008.13 1008.03 1007.85 1007.52 1007.24 1006.86 1006.60 1006.56 1006.63 1006.85 1006.87 1007.84 1007.86 1007.99 1008.07 1008.02 1008.14 1008.31 1008.21 1008.29
1012.51 1012.56 1012.98 1012.89 1011.99 1012.04 1012.28 1011.85 1011.51 1011.77 1011.86 1011.77 1011.51 1011.14 1010.63 1010.29 1009.85 1009.76 1009.41 1009.10 1008.99 1008.72 1008.85 1008.84 1008.82 1008.41 1007.92 1007.52 1007.21 1007.04 1006.90 1006.92 1007.05 1007.21 1008.07 1008.54 1008.78 1008.85 1008.97 1009.26 1009.31 1009.45 1009.59
1012.85 1012.77 1012.87 1012.29 1012.38 1012.16 1011.92 1011.62 1011.43 1011.22 1011.17 1011.43 1011.31 1011.26 1010.84 1010.31 1009.92 1009.91 1009.52 1009.43 1009.27 1009.24 1009.64 1009.58 1009.39 1008.95 1008.48 1007.98 1007.62 1007.58 1007.69 1007.76 1008.18 1008.24 1008.65 1009.22 1009.42 1009.76 1009.74 1010.07 1010.30 1010.53 1010.61
1012.45 1012.21 1012.70 1012.76 1012.04 1011.59 1011.38 1011.17 1011.22 1011.22 1011.04 1011.20 1011.14 1011.04 1010.89 1010.38 1010.26 1010.34 1009.84 1009.29 1009.50 1009.89 1010.03 1010.02 1010.16 1009.98 1009.61 1008.93 1008.20 1008.43 1008.51 1008.81 1008.98 1009.20 1009.56 1009.88 1010.23 1010.42 1010.54 1010.80 1010.83 1010.96 1011.12
1012.28 1011.98 1012.06 1011.67 1011.29 1011.09 1011.29 1011.37 1011.55 1011.43 1011.33 1011.38 1011.18 1010.93 1010.77 1010.34 1010.42 1010.25 1009.92 1009.82 1009.94 1010.19 1010.10 1010.07 1010.16 1010.34 1010.41 1010.06 1009.71 1009.62 1009.51 1009.68 1009.85 1010.08 1010.43 1010.75 1011.12 1011.22 1011.27 1011.08 1010.91 1010.81 1010.71
1011.82 1011.61 1011.56 1011.33 1011.26 1011.29 1011.36 1011.45 1011.33 1011.25 1011.18 1011.02 1010.90 1010.95 1010.64 1010.63 1010.72 1010.47 1010.00 1010.48 1010.18 1010.25 1010.18 1009.91 1009.70 1010.29 1010.23 1010.34 1010.33 1010.40 1010.47 1010.61 1010.83 1011.00 1011.19 1011.50 1011.63 1011.62 1011.45 1011.04 1010.47 1010.26 1010.44
1011.57 1011.43 1011.42 1011.28 1011.27 1011.39 1011.48 1011.37 1011.10 1011.02 1010.85 1010.74 1010.77 1010.68 1010.95 1010.99 1011.09 1010.75 1010.68 1010.69 1010.53 1010.44 1010.34 1010.14 1010.25 1010.39 1010.57 1010.43 1010.59 1010.92 1011.06 1011.01 1011.17 1011.38 1011.61 1011.72 1011.78 1011.49 1011.09 1010.89 1010.79 1010.63 1010.82
1011.62 1011.46 1011.47 1011.44 1011.44 1011.40 1011.39 1011.32 1010.94 1010.76 1010.64 1010.65 1010.79 1011.02 1011.21 1011.44 1011.47 1011.19 1011.16 1011.04 1010.96 1010.82 1010.87 1010.89 1010.94 1011.21 1011.34 1010.98 1010.98 1011.19 1011.42 1011.75 1012.25 1012.18 1012.24 1012.14 1011.94 1011.75 1011.54 1011.22 1010.62 1010.42 1010.73
1011.36 1011.44 1011.44 1011.35 1011.28 1011.41 1011.29 1011.39 1011.38 1011.16 1010.82 1011.10 1011.36 1011.63 1011.77 1012.06 1011.89 1011.88 1011.75 1011.55 1011.62 1011.80 1011.95 1012.18 1012.53 1012.48 1011.89 1011.43 1011.36 1011.38 1011.48 1011.74 1011.86 1012.18 1012.27 1012.27 1011.74 1011.81 1011.57 1011.33 1011.04 1010.82 1010.91
1011.40 1011.39 1011.45 1011.41 1011.41 1011.25 1011.16 1011.53 1011.35 1011.38 1011.54 1011.71 1012.04 1012.34 1012.57 1012.57 1012.81 1012.79 1012.42 1012.56 1012.77 1012.76 1012.80 1012.94 1013.33 1013.09 1012.73 1012.57 1012.50 1012.49 1012.39 1011.88 1011.70 1011.38 1011.39 1011.80 1012.02 1011.97 1011.97 1011.92 1011.90 1011.66 1011.76
1011.19 1011.35 1011.39 1011.41 1011.46 1011.13 1011.29 1011.42 1011.70 1011.89 1012.09 1012.40 1012.65 1013.13 1013.36 1013.50 1013.58 1013.33 1013.38 1013.66 1014.00 1013.88 1013.87 1013.92 1014.11 1013.91 1013.88 1013.65 1013.29 1013.20 1012.71 1011.95 1011.53 1011.30 1011.31 1011.57 1011.82 1011.99 1012.07 1012.18 1012.29 1012.30 1012.60
1011.04 1011.31 1011.52 1011.55 1011.68 1011.55 1011.55 1011.88 1012.18 1012.50 1012.78 1013.17 1013.46 1013.80 1014.16 1014.30 1014.46 1014.45 1014.33 1014.34 1014.54 1014.37 1014.42 1014.67 1014.56 1014.20 1013.98 1013.86 1013.56 1012.97 1012.60 1011.65 1011.19 1010.91 1010.76 1011.34 1011.91 1012.34 1012.52 1012.52 1012.58 1012.66 1012.66
1011.28 1011.57 1011.81 1011.79 1011.87 1012.02 1012.22 1012.55 1012.87 1013.20 1013.54 1013.90 1014.13 1014.47 1014.81 1015.18 1015.28 1015.14 1015.19 1015.12 1014.87 1014.73 1014.85 1014.67 1014.33 1014.16 1014.08 1013.80 1013.35 1012.92 1012.60 1012.38 1011.87 1011.37 1010.89 1010.61 1011.21 1012.18 1012.67 1012.66 1012.71 1012.61 1012.42
1011.87 1012.11 1012.33 1012.49 1012.66 1012.94 1013.25 1013.50 1013.74 1014.13 1014.27 1014.56 1015.03 1015.42 1015.63 1015.84 1015.95 1015.68 1014.90 1014.24 1014.23 1014.37 1014.17 1014.31 1014.20 1014.10 1013.86 1013.71 1013.47 1013.24 1013.07 1012.56 1012.23 1011.95 1011.45 1011.08 1011.20 1012.04 1012.96 1013.34 1012.99 1013.05 1013.05
1012.71 1013.00 1013.21 1013.32 1013.55 1013.85 1014.18 1014.68 1015.08 1015.17 1015.44 1015.68 1015.86 1015.97 1016.29 1016.52 1016.27 1015.82 1015.51 1015.40 1015.23 1014.96 1014.82 1014.65 1014.47 1014.12 1013.83 1013.70 1013.57 1013.53 1013.57 1013.41 1013.01 1012.62 1012.36 1011.96 1011.85 1012.67 1013.60 1013.84 1013.75 1013.72 1013.76
1013.79 1013.97 1014.08 1014.20 1014.37 1014.46 1014.68 1015.00 1015.79 1016.61 1016.60 1016.66 1016.68 1016.60 1016.67 1016.78 1016.74 1016.53 1016.27 1015.96 1015.58 1015.10 1014.73 1014.67 1014.59 1014.51 1014.43 1014.34 1014.28 1014.30 1014.19 1014.18 1013.87 1013.61 1013.28 1012.85 1012.45 1013.10 1013.61 1014.12 1014.32 1014.32 1014.36
1014.77 1014.83 1014.70 1014.78 1014.57 1014.40 1014.86 1015.37 1015.87 1016.32 1016.80 1017.35 1017.67 1017.57 1017.58 1017.48 1017.28 1017.05 1016.68 1016.29 1015.64 1015.56 1015.50 1015.49 1015.41 1015.34 1015.22 1015.06 1015.11 1015.18 1015.16 1015.03 1014.71 1014.52 1014.26 1013.96 1013.44 1013.87 1014.12 1014.78 1014.97 1015.28 1015.37
1015.62 1015.57 1015.28 1014.92 1014.71 1014.59 1014.69 1015.10 1015.71 1016.34 1016.91 1017.40 1017.78 1018.05 1017.93 1017.66 1017.34 1016.96 1016.59 1016.48 1016.38 1016.32 1016.30 1016.19 1016.05 1015.89 1015.77 1015.72 1015.67 1015.73 1015.79 1015.69 1015.44 1015.30 1015.22 1014.94 1014.33 1014.74 1015.22 1015.48 1015.53 1015.82 1015.77
1016.47 1016.28 1015.75 1015.36 1015.25 1015.12 1015.21 1015.38 1015.73 1016.16 1016.60 1016.94 1017.24 1017.51 1017.67 1017.45 1017.26 1017.19 1017.14 1017.07 1016.97 1016.85 1016.81 1016.79 1016.72 1016.62 1016.52 1016.49 1016.48 1016.46 1016.45 1016.40 1016.15 1015.97 1016.10 1015.84 1015.75 1015.90 1016.01 1016.13 1016.54 1016.57 1016.54
1017.12 1016.98 1016.90 1016.28 1015.62 1015.47 1015.62 1015.86 1016.15 1016.65 1017.11 1017.60 1017.94 1018.19 1018.26 1017.67 1017.75 1017.85 1017.88 1017.81 1017.72 1017.70 1017.72 1017.68 1017.60 1017.54 1017.45 1017.38 1017.37 1017.50 1017.53 1017.44 1017.05 1016.60 1016.52 1016.86 1016.94 1017.03 1016.87 1016.90 1017.10 1017.38 1017.32
1017.73 1017.30 1016.75 1016.09 1016.05 1016.07 1016.35 1016.63 1016.93 1017.34 1017.72 1018.03 1018.35 1018.57 1018.36 1018.13 1018.31 1018.46 1018.62 1018.70 1018.75 1018.71 1018.65 1018.51 1018.52 1018.60 1018.80 1019.02 1019.04 1018.79 1018.63 1018.38 1018.00 1017.21 1017.49 1017.93 1017.82 1017.58 1017.67 1017.69 1017.96 1018.01 1017.90
1016.99 1016.50 1016.53 1016.61 1016.68 1016.66 1016.67 1016.91 1017.20 1017.45 1017.71 1017.96 1018.19 1018.49 1018.83 1019.11 1019.37 1019.54 1019.72 1019.86 1019.94 1020.01 1020.02 1019.89 1019.73 1019.83 1019.97 1020.27 1020.44 1020.50 1020.47 1019.73 1018.97 1018.22 1017.83 1018.45 1018.42 1018.28 1018.24 1018.40 1018.82 1018.70 1018.53
1016.76 1016.53 1016.54 1016.68 1016.84 1017.06 1017.38 1017.75 1018.06 1018.23 1018.41 1018.78 1019.18 1019.53 1019.83 1020.09 1020.31 1020.56 1020.65 1020.78 1020.86 1020.92 1020.98 1021.20 1021.51 1021.65 1021.56 1021.51 1021.55 1021.63 1021.94 1021.91 1020.56 1020.04 1018.56 1018.45 1018.67 1018.75 1018.77 1018.95 1019.50 1019.41 1019.23
1017.18 1017.18 1017.27 1017.49 1017.72 1017.85 1018.03 1018.33 1018.66 1018.95 1019.24 1019.59 1019.93 1020.25 1020.57 1020.87 1021.09 1021.27 1021.43 1021.61 1021.78 1021.94 1022.16 1022.24 1022.29 1022.60 1022.87 1023.09 1022.97 1022.82 1022.88 1022.42 1021.58 1021.18 1019.34 1019.02 1018.86 1019.15 1019.25 1019.58 1020.02 1020.02 1019.82
1017.77 1017.81 1017.92 1018.15 1018.38 1018.65 1018.96 1019.23 1019.52 1019.85 1020.19 1020.55 1020.84 1021.03 1021.25 1021.49 1021.72 1021.92 1022.10 1022.29 1022.52 1022.80 1022.92 1023.05 1023.22 1023.45 1023.68 1023.97 1024.14 1024.05 1023.62 1023.08 1022.38 1021.54 1020.37 1019.84 1019.58 1019.62 1019.60 1019.93 1020.67 1020.71 1020.57
Thickness
5592 5589 5589 5587 5587 5587 5588 5591 5589 5588 5587 5587 5589 5591 5593 5595 5597 5599 5601 5604 5610 5614 5612 5611 5610 5607 5608 5607 5606 5608 5611 5607 5605 5603 5596 5595 5593 5595 5595 5595 5594 5594 5592
5567 5571 5570 5569 5571 5569 5571 5577 5579 5578 5576 5576 5579 5581 5584 5587 5590 5592 5592 5596 5598 5601 5599 5597 5595 5594 5593 5594 5595 5598 5598 5596 5592 5593 5580 5583 5581 5580 5581 5579 5577 5576 5574
5539 5541 5539 5541 5552 5554 5554 5560 5565 5564 5564 5565 5567 5571 5575 5578 5582 5582 5585 5586 5586 5586 5583 5581 5580 5582 5584 5585 5587 5587 5588 5587 5583 5580 5569 5567 5565 5564 5563 5560 5558 5555 5552
5517 5515 5514 5522 5525 5532 5539 5545 5549 5552 5555 5554 5555 5556 5561 5566 5570 5570 5573 5574 5574 5572 5566 5566 5566 5569 5571 5574 5577 5576 5573 5571 5563 5561 5557 5552 5550 5547 5547 5543 5539 5536 5533
5500 5499 5495 5498 5507 5517 5526 5531 5534 5537 5543 5542 5544 5546 5549 5555 5557 5555 5561 5566 5561 5555 5552 5552 5551 5552 5554 5559 5565 5560 5558 5553 5550 5547 5542 5539 5535 5532 5530 5525 5523 5521 5518
5486 5488 5489 5492 5499 5505 5508 5513 5516 5521 5526 5528 5532 5536 5539 5546 5545 5546 5550 5550 5548 5542 5543 5544 5544 5541 5540 5543 5544 5542 5542 5539 5535 5531 5526 5522 5516 5514 5513 5514 5513 5511 5512
5473 5478 5479 5483 5485 5490 5494 5498 5504 5510 5516 5521 5524 5526 5531 5535 5533 5536 5541 5535 5538 5536 5537 5540 5542 5537 5538 5536 5534 5531 5529 5526 5521 5516 5510 5506 5502 5501 5502 5503 5509 5511 5507
5463 5466 5467 5470 5474 5479 5483 5489 5496 5502 5508 5513 5516 5519 5519 5523 5522 5526 5527 5527 5529 5530 5531 5533 5533 5531 5530 5532 5530 5523 5519 5516 5511 5504 5500 5495 5491 5491 5495 5497 5497 5499 5495
5454 5456 5458 5462 5466 5472 5476 5480 5488 5495 5501 5503 5506 5506 5507 5508 5511 5515 5518 5519 5521 5524 5524 5524 5524 5522 5518 5523 5523 5519 5513 5506 5496 5492 5488 5486 5485 5485 5485 5488 5495 5498 5497
5453 5453 5454 5458 5463 5465 5470 5473 5477 5481 5487 5489 5492 5494 5496 5497 5501 5506 5509 5513 5514 5513 5512 5510 5505 5507 5510 5515 5516 5515 5512 5507 5501 5495 5491 5489 5490 5488 5489 5491 5493 5496 5496
5446 5448 5450 5454 5457 5462 5467 5468 5473 5474 5476 5479 5482 5484 5487 5491 5492 5495 5501 5502 5503 5502 5505 5503 5500 5500 5502 5502 5502 5503 5501 5503 5502 5503 5501 5495 5490 5489 5487 5486 5486 5488 5487
5444 5444 5447 5450 5454 5462 5465 5469 5469 5471 5473 5474 5476 5477 5480 5484 5486 5491 5494 5493 5492 5494 5494 5493 5490 5490 5490 5491 5494 5491 5493 5501 5504 5503 5501 5497 5493 5490 5488 5485 5483 5481 5477
5448 5448 5448 5451 5453 5459 5464 5466 5468 5470 5471 5472 5475 5477 5477 5479 5483 5484 5483 5487 5488 5489 5488 5484 5484 5486 5487 5488 5487 5489 5493 5504 5506 5506 5506 5499 5492 5486 5482 5480 5478 5475 5473
5450 5449 5449 5453 5457 5461 5465 5468 5470 5472 5473 5474 5476 5477 5476 5474 5477 5482 5483 5484 5485 5486 5482 5484 5485 5485 5484 5486 5489 5493 5496 5497 5498 5501 5502 5502 5495 5484 5478 5476 5473 5471 5471
5455 5455 5455 5457 5459 5462 5465 5468 5470 5471 5474 5475 5474 5472 5472 5474 5476 5479 5486 5493 5491 5487 5489 5486 5485 5484 5486 5488 5491 5492 5492 5494 5494 5494 5496 5497 5493 5483 5472 5465 5466 5462 5459
5461 5460 5461 5462 5464 5466 5467 5466 5467 5470 5469 5470 5471 5473 5472 5471 5473 5477 5479 5479 5479 5481 5481 5481 5481 5486 5490 5491 5491 5489 5486 5485 5486 5486 5484 5485 5484 5473 5460 5455 5453 5450 5447
5465 5466 5466 5467 5468 5471 5474 5474 5470 5465 5466 5466 5467 5469 5470 5469 5471 5472 5473 5474 5476 5481 5487 5487 5487 5487 5487 5486 5485 5482 5480 5477 5476 5474 5472 5473 5473 5462 5454 5446 5441 5439 5436
5472 5472 5476 5477 5481 5485 5483 5480 5478 5474 5471 5467 5463 5465 5463 5465 5468 5471 5474 5477 5485 5484 5484 5483 5482 5481 5480 5479 5476 5472 5469 5466 5464 5461 5459 5458 5458 5450 5445 5435 5431 5425 5423
5477 5477 5480 5485 5489 5491 5492 5489 5484 5480 5474 5471 5469 5468 5468 5471 5474 5478 5481 5483 5482 5481 5479 5478 5477 5477 5475 5473 5470 5465 5461 5458 5456 5452 5448 5445 5446 5438 5430 5425 5423 5417 5417
5480 5480 5485 5490 5491 5492 5492 5492 5492 5489 5486 5485 5484 5481 5480 5481 5482 5482 5481 5480 5478 5478 5476 5474 5472 5470 5468 5465 5462 5458 5454 5450 5447 5444 5437 5434 5431 5426 5421 5417 5410 5409 5408
5483 5484 5482 5489 5496 5499 5498 5497 5495 5491 5488 5484 5481 5477 5471 5482 5481 5478 5476 5475 5474 5472 5469 5466 5464 5461 5459 5457 5454 5449 5444 5439 5437 5435 5431 5424 5418 5413 5412 5409 5405 5399 5400
5487 5490 5494 5502 5503 5503 5500 5497 5495 5491 5488 5484 5481 5479 5477 5482 5479 5476 5472 5470 5467 5464 5461 5459 5456 5452 5447 5443 5439 5437 5433 5429 5426 5428 5421 5412 5410 5408 5404 5401 5396 5394 5395
5502 5506 5506 5505 5504 5502 5504 5502 5499 5496 5493 5490 5488 5484 5480 5477 5473 5469 5465 5461 5457 5453 5450 5448 5446 5442 5437 5432 5426 5422 5417 5418 5418 5418 5417 5407 5405 5403 5400 5395 5389 5389 5391
5513 5514 5514 5513 5511 5508 5505 5501 5497 5493 5491 5486 5482 5478 5475 5471 5467 5462 5458 5453 5449 5446 5442 5437 5432 5428 5425 5422 5417 5412 5406 5402 5406 5405 5411 5408 5404 5400 5397 5392 5385 5385 5386
5517 5516 5514 5512 5510 5508 5505 5501 5496 5491 5488 5484 5481 5477 5472 5466 5462 5457 5452 5447 5442 5438 5433 5429 5426 5421 5416 5410 5407 5404 5401 5401 5401 5401 5407 5405 5404 5399 5395 5389 5384 5383 5384
5518 5517 5515 5513 5509 5505 5500 5495 5491 5487 5483 5479 5476 5472 5467 5463 5457 5452 5447 5442 5436 5431 5427 5424 5419 5415 5410 5404 5400 5398 5397 5397 5397 5400 5401 5401 5400 5398 5395 5390 5381 5380 5381